• In Italy
  • List of Countries
  • For 7 days
  • Water Temperature
  • Satellite Maps
  • Weather Map
  • Weather Widgets
  • user-avatar
    Login

    Hourly Weather Barkovo

    Today, 22 September, Saturday

    Time Temperature Precipitation Wind Pressure Humidity
    00:00 +16°C° 0 mm 3 mps 743 mmHg 79%
    01:00 +15°C° 0 mm 4 mps 743 mmHg 78%
    02:00 +15°C° 0 mm 4 mps 743 mmHg 78%
    03:00 +15°C° 0 mm 4 mps 742 mmHg 78%
    04:00 +15°C° 0 mm 4 mps 742 mmHg 77%
    05:00 +15°C° 0 mm 5 mps 742 mmHg 77%
    06:00 +16°C° 0 mm 5 mps 741 mmHg 74%
    07:00 +16°C° 0 mm 5 mps 741 mmHg 71%
    08:00 +17°C° 0 mm 6 mps 740 mmHg 68%
    09:00 +20°C° 0 mm 6 mps 740 mmHg 63%
    10:00 +21°C° 0 mm 7 mps 740 mmHg 58%
    11:00 +23°C° 0 mm 7 mps 739 mmHg 52%
    12:00 +23°C° 0 mm 7 mps 739 mmHg 53%
    13:00 +23°C° 0 mm 6 mps 739 mmHg 55%
    14:00 +23°C° 0 mm 6 mps 739 mmHg 56%
    15:00 +20°C° 0.3 mm 6 mps 739 mmHg 66%
    16:00 +16°C° 0.3 mm 5 mps 739 mmHg 75%
    17:00 +13°C° 0.3 mm 5 mps 740 mmHg 85%
    18:00 +12°C° 0.5 mm 4 mps 740 mmHg 87%
    19:00 +11°C° 0.5 mm 4 mps 740 mmHg 89%
    20:00 +11°C° 0.5 mm 3 mps 740 mmHg 91%
    21:00 +10°C° 0.8 mm 3 mps 741 mmHg 91%
    22:00 +10°C° 0.8 mm 3 mps 741 mmHg 92%
    23:00 +10°C° 0.8 mm 3 mps 741 mmHg 93%

    Tomorrow, 23 September, Sunday

    Time Temperature Precipitation Wind Pressure Humidity
    00:00 +10°C° 0.3 mm 3 mps 741 mmHg 93%
    01:00 +10°C° 0.3 mm 3 mps 741 mmHg 93%
    02:00 +9°C° 0.3 mm 3 mps 741 mmHg 93%
    03:00 +9°C° 0 mm 3 mps 740 mmHg 94%
    04:00 +8°C° 0 mm 3 mps 740 mmHg 95%
    05:00 +8°C° 0 mm 3 mps 740 mmHg 96%
    06:00 +8°C° 0 mm 3 mps 740 mmHg 93%
    07:00 +9°C° 0 mm 3 mps 740 mmHg 91%
    08:00 +8°C° 0 mm 4 mps 740 mmHg 88%
    09:00 +11°C° 0 mm 4 mps 740 mmHg 81%
    10:00 +12°C° 0 mm 5 mps 740 mmHg 73%
    11:00 +14°C° 0 mm 5 mps 740 mmHg 66%
    12:00 +14°C° 0.4 mm 5 mps 739 mmHg 66%
    13:00 +14°C° 0.4 mm 5 mps 739 mmHg 65%
    14:00 +14°C° 0.4 mm 5 mps 739 mmHg 65%
    15:00 +13°C° 0.4 mm 5 mps 739 mmHg 69%
    16:00 +12°C° 0.4 mm 4 mps 739 mmHg 73%
    17:00 +12°C° 0.4 mm 3 mps 739 mmHg 77%
    18:00 +11°C° 0.1 mm 3 mps 739 mmHg 80%
    19:00 +9°C° 0.1 mm 3 mps 739 mmHg 84%
    20:00 +8°C° 0.1 mm 3 mps 739 mmHg 87%
    21:00 +8°C° 0 mm 3 mps 739 mmHg 88%
    22:00 +8°C° 0 mm 3 mps 739 mmHg 88%
    23:00 +7°C° 0 mm 3 mps 739 mmHg 89%

    Day after tomorrow, 24 September, Monday

    Time Temperature Precipitation Wind Pressure Humidity
    00:00 +7°C° 0 mm 3 mps 739 mmHg 90%
    01:00 +7°C° 0 mm 2 mps 739 mmHg 92%
    02:00 +7°C° 0 mm 2 mps 738 mmHg 93%
    03:00 +7°C° 0 mm 2 mps 738 mmHg 93%
    04:00 +7°C° 0 mm 2 mps 737 mmHg 94%
    05:00 +7°C° 0 mm 2 mps 737 mmHg 94%
    06:00 +7°C° 0.3 mm 2 mps 736 mmHg 94%
    07:00 +8°C° 0.3 mm 3 mps 736 mmHg 93%
    08:00 +8°C° 0.3 mm 3 mps 735 mmHg 92%
    09:00 +7°C° 2.5 mm 4 mps 734 mmHg 93%
    10:00 +7°C° 2.5 mm 4 mps 733 mmHg 94%
    11:00 +7°C° 2.5 mm 4 mps 732 mmHg 95%
    12:00 +7°C° 2.9 mm 5 mps 731 mmHg 95%
    13:00 +7°C° 2.9 mm 5 mps 730 mmHg 95%
    14:00 +7°C° 2.9 mm 5 mps 729 mmHg 95%
    15:00 +7°C° 2.3 mm 6 mps 728 mmHg 94%
    16:00 +7°C° 2.3 mm 6 mps 728 mmHg 94%
    17:00 +5°C° 2.3 mm 7 mps 727 mmHg 94%
    18:00 +5°C° 1.5 mm 7 mps 728 mmHg 93%
    19:00 +5°C° 1.5 mm 8 mps 728 mmHg 92%
    20:00 +5°C° 1.5 mm 9 mps 728 mmHg 91%
    21:00 +5°C° 0.5 mm 9 mps 729 mmHg 90%
    22:00 +6°C° 0.5 mm 9 mps 730 mmHg 89%
    23:00 +6°C° 0.5 mm 8 mps 731 mmHg 89%

    25 September, Tuesday

    Time Temperature Precipitation Wind Pressure Humidity
    00:00 +5°C° 0.2 mm 8 mps 732 mmHg 88%
    01:00 +5°C° 0.2 mm 8 mps 733 mmHg 87%
    02:00 +5°C° 0.2 mm 8 mps 734 mmHg 86%
    03:00 +4°C° 0.1 mm 8 mps 735 mmHg 86%
    04:00 +4°C° 0.1 mm 7 mps 736 mmHg 86%
    05:00 +3°C° 0.1 mm 7 mps 736 mmHg 86%
    06:00 +3°C° 0 mm 7 mps 737 mmHg 85%
    07:00 +3°C° 0 mm 7 mps 738 mmHg 83%
    08:00 +4°C° 0 mm 7 mps 739 mmHg 82%
    09:00 +4°C° 0 mm 7 mps 739 mmHg 78%
    10:00 +5°C° 0 mm 7 mps 740 mmHg 75%
    11:00 +5°C° 0 mm 7 mps 741 mmHg 71%
    12:00 +6°C° 0.1 mm 7 mps 741 mmHg 68%
    13:00 +6°C° 0.1 mm 7 mps 742 mmHg 65%
    14:00 +8°C° 0.1 mm 7 mps 742 mmHg 63%
    15:00 +6°C° 0.1 mm 7 mps 743 mmHg 64%
    16:00 +7°C° 0.1 mm 6 mps 743 mmHg 66%
    17:00 +6°C° 0.1 mm 5 mps 744 mmHg 68%
    18:00 +5°C° 0 mm 5 mps 745 mmHg 68%
    19:00 +3°C° 0 mm 5 mps 745 mmHg 68%
    20:00 +3°C° 0 mm 5 mps 746 mmHg 68%
    21:00 +3°C° 0 mm 4 mps 747 mmHg 68%
    22:00 +3°C° 0 mm 4 mps 747 mmHg 69%
    23:00 +1°C° 0 mm 4 mps 747 mmHg 69%

    26 September, Wednesday

    Time Temperature Precipitation Wind Pressure Humidity
    00:00 +1°C° 0 mm 4 mps 748 mmHg 72%
    01:00 +1°C° 0 mm 4 mps 748 mmHg 75%
    02:00 +1°C° 0 mm 4 mps 748 mmHg 78%
    03:00 +1°C° 0.1 mm 4 mps 747 mmHg 79%
    04:00 +3°C° 0.1 mm 4 mps 747 mmHg 79%
    05:00 +2°C° 0.1 mm 5 mps 747 mmHg 80%
    06:00 +2°C° 0.4 mm 5 mps 746 mmHg 83%
    07:00 +3°C° 0.4 mm 5 mps 746 mmHg 86%
    08:00 +4°C° 0.4 mm 6 mps 746 mmHg 88%
    09:00 +5°C° 0.4 mm 6 mps 746 mmHg 88%
    10:00 +6°C° 0.4 mm 7 mps 745 mmHg 88%
    11:00 +8°C° 0.4 mm 7 mps 745 mmHg 88%
    12:00 +8°C° 0.1 mm 7 mps 745 mmHg 87%
    13:00 +8°C° 0.1 mm 7 mps 744 mmHg 86%
    14:00 +9°C° 0.1 mm 7 mps 744 mmHg 84%
    15:00 +8°C° 0.6 mm 7 mps 744 mmHg 87%
    16:00 +8°C° 0.6 mm 7 mps 743 mmHg 89%
    17:00 +7°C° 0.6 mm 6 mps 743 mmHg 91%
    18:00 +6°C° 0.6 mm 7 mps 742 mmHg 91%
    19:00 +6°C° 0.6 mm 7 mps 742 mmHg 91%
    20:00 +6°C° 0.6 mm 7 mps 742 mmHg 91%
    21:00 +6°C° 0.7 mm 7 mps 741 mmHg 91%
    22:00 +6°C° 0.7 mm 8 mps 740 mmHg 90%
    23:00 +6°C° 0.7 mm 8 mps 740 mmHg 90%

    27 September, Thursday

    Time Temperature Precipitation Wind Pressure Humidity
    00:00 +6°C° 0.4 mm 8 mps 739 mmHg 90%
    01:00 +6°C° 0.4 mm 8 mps 738 mmHg 90%
    02:00 +6°C° 0.4 mm 8 mps 738 mmHg 90%
    03:00 +6°C° 0.2 mm 8 mps 737 mmHg 90%
    04:00 +7°C° 0.2 mm 8 mps 737 mmHg 90%
    05:00 +7°C° 0.2 mm 8 mps 737 mmHg 91%
    06:00 +7°C° 0.2 mm 8 mps 736 mmHg 91%
    07:00 +9°C° 0.2 mm 7 mps 736 mmHg 91%
    08:00 +9°C° 0.2 mm 7 mps 736 mmHg 91%
    09:00 +10°C° 0.3 mm 7 mps 736 mmHg 90%
    10:00 +10°C° 0.3 mm 7 mps 736 mmHg 90%
    11:00 +10°C° 0.3 mm 7 mps 736 mmHg 89%
    12:00 +10°C° 0.6 mm 7 mps 736 mmHg 90%
    13:00 +10°C° 0.6 mm 7 mps 735 mmHg 90%
    14:00 +10°C° 0.6 mm 8 mps 735 mmHg 90%
    15:00 +10°C° 0.4 mm 7 mps 735 mmHg 90%
    16:00 +10°C° 0.4 mm 7 mps 734 mmHg 91%
    17:00 +10°C° 0.4 mm 7 mps 734 mmHg 91%
    18:00 +11°C° 0.5 mm 6 mps 734 mmHg 92%
    19:00 +11°C° 0.5 mm 6 mps 733 mmHg 92%
    20:00 +11°C° 0.5 mm 6 mps 733 mmHg 93%
    21:00 +11°C° 1.4 mm 6 mps 733 mmHg 92%
    22:00 +11°C° 1.4 mm 7 mps 732 mmHg 91%
    23:00 +11°C° 1.4 mm 8 mps 732 mmHg 90%
    Show more